Weather History for Fairbanks, AK

Change the Weather History Date:

Wednesday, April 3, 2013

  Actual Average Record
Temperature  
Mean Temperature 23 °F 23 °F  
Max Temperature 32 °F 36 °F 55 °F (1938)
Min Temperature 13 °F 10 °F -32 °F (1944)
Degree Days  
Heating Degree Days 42 42  
Month to date heating degree days 118 128  
Since 1 July heating degree days 12875 12178  
Cooling Degree Days 0 0  
Month to date cooling degree days 0 0  
Year to date cooling degree days 0 0  
Moisture  
Dew Point 6 °F    
Average Humidity 47    
Maximum Humidity 65    
Minimum Humidity 26    
Precipitation  
Precipitation 0.00 in 0.01 in 0.09 in (1967)
Month to date precipitation T 0.02  
Year to date precipitation 1.53 1.27  
Snow  
Snow 0.00 in 0.10 in 1.40 in (1970)
Month to date snowfall T 0.4  
Since 1 July snowfall 56.7 61.6  
Snow Depth 21.00 in    
Sea Level Pressure  
Sea Level Pressure 30.38 in    
Wind  
Wind Speed 10 mph (NNE)    
Max Wind Speed 18 mph    
Max Gust Speed -    
Visibility 10 miles    
Events      
T = Trace of Precipitation, MM = Missing Value Source: NWS Daily Summary

Daily Weather History Graph

Daily Weather History Graph

Search for Another Location

Airport:

Trip Planner

Search our weather history database for the weather conditions in past years. The results will help you decide how hot, cold, wet, or windy it might be!

Date:

Astronomy

Apr. 03, 2013 Rise Set
Actual Time 6:59 AM AKDT 8:52 PM AKDT
Civil Twilight 6:07 AM AKDT 9:44 PM AKDT
Nautical Twilight 4:58 AM AKDT 10:54 PM AKDT
Astronomical Twilight 3:19 AM AKDT 12:38 AM AKDT
Moon 5:12 AM AKDT (4/3) 11:54 AM AKDT (4/3)
Length of Visible Light 15h 37m
Length of Day
13h 52m
Last Quarter, 43% of the Moon is Illuminated
Apr 3
Last Quarter
Apr 10
New
Apr 18
First Quarter
Apr 25
Full
May 2
Last Quarter

Hourly Weather History & Observations

Time (AKDT) Temp. Windchill Dew Point Humidity Pressure Visibility Wind Dir Wind Speed Gust Speed Precip Events Conditions
12:53 AM 24.1 °F 13.1 °F 10.0 °F 55% 30.23 in 10.0 mi North 11.5 mph - N/A   Mostly Cloudy
1:53 AM 23.0 °F 12.4 °F 9.0 °F 55% 30.25 in 10.0 mi North 10.4 mph - N/A   Mostly Cloudy
2:53 AM 19.0 °F 10.0 °F 9.0 °F 65% 30.27 in 10.0 mi NE 6.9 mph - N/A   Mostly Cloudy
3:53 AM 18.0 °F 6.9 °F 7.0 °F 62% 30.28 in 10.0 mi NNE 9.2 mph - N/A   Mostly Cloudy
4:53 AM 19.9 °F 7.9 °F 7.0 °F 57% 30.28 in 10.0 mi North 11.5 mph - N/A   Mostly Cloudy
5:53 AM 19.0 °F 7.5 °F 7.0 °F 59% 30.30 in 10.0 mi NNE 10.4 mph - N/A   Mostly Cloudy
6:53 AM 18.0 °F 6.9 °F 6.1 °F 60% 30.31 in 10.0 mi North 9.2 mph - N/A   Mostly Cloudy
7:53 AM 16.0 °F 5.3 °F 5.0 °F 62% 30.33 in 10.0 mi NE 8.1 mph - N/A   Mostly Cloudy
8:53 AM 19.0 °F 12.3 °F 6.1 °F 57% 30.34 in 10.0 mi NE 4.6 mph - N/A   Scattered Clouds
9:53 AM 21.9 °F 15.7 °F 7.0 °F 53% 30.36 in 10.0 mi ENE 4.6 mph - N/A   Scattered Clouds
10:53 AM 24.1 °F 17.0 °F 8.1 °F 51% 30.37 in 10.0 mi NE 5.8 mph - N/A   Partly Cloudy
11:53 AM 28.0 °F 24.2 °F 9.0 °F 45% 30.38 in 10.0 mi ENE 3.5 mph - N/A   Partly Cloudy
12:53 PM 30.9 °F 24.3 °F 9.0 °F 40% 30.39 in 10.0 mi East 6.9 mph - N/A   Partly Cloudy
1:53 PM 30.9 °F 23.5 °F 9.0 °F 40% 30.39 in 10.0 mi NE 8.1 mph - N/A   Partly Cloudy
2:53 PM 32.0 °F 23.6 °F 10.0 °F 40% 30.40 in 10.0 mi NE 10.4 mph - N/A   Partly Cloudy
3:53 PM 32.0 °F 22.1 °F 10.0 °F 40% 30.41 in 10.0 mi NE 13.8 mph - N/A   Partly Cloudy
4:53 PM 30.0 °F 18.7 °F 8.1 °F 40% 30.42 in 10.0 mi NNE 16.1 mph - N/A   Partly Cloudy
5:53 PM 28.0 °F 16.1 °F 8.1 °F 43% 30.43 in 10.0 mi NE 16.1 mph - N/A   Partly Cloudy
6:53 PM 25.0 °F 11.3 °F 6.1 °F 45% 30.44 in 10.0 mi NNE 18.4 mph - N/A   Partly Cloudy
7:53 PM 23.0 °F 8.7 °F 3.0 °F 42% 30.45 in 10.0 mi NNE 18.4 mph - N/A   Partly Cloudy
8:53 PM 21.0 °F 7.6 °F 1.0 °F 42% 30.47 in 10.0 mi North 15.0 mph - N/A   Partly Cloudy
9:53 PM 19.0 °F 5.0 °F -0.9 °F 42% 30.49 in 10.0 mi NNE 15.0 mph - N/A   Clear
10:53 PM 16.0 °F 2.9 °F -2.0 °F 45% 30.49 in 10.0 mi NNE 11.5 mph - N/A   Clear
11:53 PM 17.1 °F 5.0 °F -2.0 °F 43% 30.50 in 10.0 mi NNE 10.4 mph - N/A   Clear